Chicago Midway, IL

7:18 PM CST on December 06, 2019 (GMT -0600)
Chicago-Midway

Weather History for KMDW - October, 2019

Change the Weather History Date:

Thursday, October 17, 2019

  Actual Average Record
Temperature  
Mean Temperature 49 °F 54 °F  
Max Temperature 56 °F 62 °F 86 °F (1950)
Min Temperature 41 °F 45 °F 26 °F (1948)
Degree Days  
Heating Degree Days 16 11  
Month to date heating degree days 152 153  
Since 1 July heating degree days 153 235  
Cooling Degree Days 0 0  
Month to date cooling degree days 21 13  
Year to date cooling degree days 1131 1042  
Moisture  
Dew Point 37 °F    
Average Humidity 68    
Maximum Humidity 82    
Minimum Humidity 40    
Precipitation  
Precipitation 0.00 in 0.10 in 1.48 in (1988)
Month to date precipitation 1.44 1.71  
Year to date precipitation 39.26 31.57  
Sea Level Pressure  
Sea Level Pressure 30.04 in    
Wind  
Wind Speed 5 mph (NW)    
Max Wind Speed 13 mph    
Max Gust Speed 17 mph    
Visibility 10 miles    
Events      
T = Trace of Precipitation, MM = Missing Value Source: NWS Daily Summary

Daily Weather History Graph

Daily Weather History Graph

Search for Another Location

Airport or City:

Astronomy

Oct. 17, 2019 Rise Set
Actual Time 7:05 AM CDT 6:06 PM CDT
Civil Twilight 6:37 AM CDT 6:34 PM CDT
Nautical Twilight 6:04 AM CDT 7:07 PM CDT
Astronomical Twilight 5:32 AM CDT 7:39 PM CDT
Moon 8:35 PM CDT (10/17) 10:39 AM CDT (10/17)
Length of Visible Light 11h 57m
Length of Day
11h 01m
Waning Gibbous, 86% of the Moon is Illuminated
Oct 17
Waning Gibbous
Oct 21
Last Quarter
Oct 27
New
Nov 4
First Quarter
Nov 12
Full

Hourly Weather History & Observations

Time (CDT) Temp. Windchill Dew Point Humidity Pressure Visibility Wind Dir Wind Speed Gust Speed Precip Events Conditions
12:53 AM 43.0 °F 38.8 °F 35.1 °F 74% 30.02 in 10.0 mi WNW 6.9 mph - N/A   Mostly Cloudy
1:53 AM 43.0 °F 38.2 °F 36.0 °F 76% 30.03 in 10.0 mi NW 8.1 mph - N/A   Mostly Cloudy
2:53 AM 42.1 °F 39.2 °F 36.0 °F 79% 30.02 in 10.0 mi WNW 4.6 mph - N/A   Overcast
3:53 AM 42.1 °F 39.2 °F 36.0 °F 79% 30.02 in 10.0 mi WNW 4.6 mph - N/A   Mostly Cloudy
4:53 AM 43.0 °F 40.3 °F 36.0 °F 76% 30.02 in 10.0 mi WNW 4.6 mph - N/A   Overcast
5:53 AM 42.1 °F 40.2 °F 36.0 °F 79% 30.03 in 10.0 mi NW 3.5 mph - N/A   Mostly Cloudy
6:53 AM 43.0 °F 41.3 °F 36.0 °F 76% 30.02 in 10.0 mi West 3.5 mph - N/A   Mostly Cloudy
7:53 AM 42.1 °F 39.2 °F 37.0 °F 82% 30.05 in 10.0 mi WNW 4.6 mph - N/A   Scattered Clouds
8:53 AM 45.0 °F 41.8 °F 37.0 °F 74% 30.06 in 10.0 mi WNW 5.8 mph - N/A   Scattered Clouds
9:53 AM 48.9 °F - 37.0 °F 64% 30.06 in 10.0 mi NNW 8.1 mph - N/A   Mostly Cloudy
10:53 AM 50.0 °F - 37.0 °F 61% 30.08 in 10.0 mi WNW 10.4 mph - N/A   Mostly Cloudy
11:53 AM 53.1 °F - 36.0 °F 52% 30.07 in 10.0 mi NNW 8.1 mph - N/A   Mostly Cloudy
12:53 PM 52.0 °F - 36.0 °F 54% 30.05 in 10.0 mi North 6.9 mph - N/A   Mostly Cloudy
1:53 PM 54.0 °F - 37.0 °F 53% 30.04 in 10.0 mi NNE 6.9 mph - N/A   Mostly Cloudy
2:53 PM 55.0 °F - 37.0 °F 51% 30.02 in 10.0 mi NNW 8.1 mph - N/A   Mostly Cloudy
3:53 PM 53.1 °F - 36.0 °F 52% 30.03 in 10.0 mi West 3.5 mph - N/A   Mostly Cloudy
4:53 PM 52.0 °F - 39.0 °F 61% 30.03 in 10.0 mi Calm Calm - N/A   Mostly Cloudy
5:53 PM 50.0 °F - 39.0 °F 66% 30.04 in 10.0 mi East 6.9 mph - N/A   Scattered Clouds
6:53 PM 48.9 °F - 39.0 °F 69% 30.03 in 10.0 mi East 8.1 mph - N/A   Partly Cloudy
7:53 PM 48.0 °F - 39.0 °F 71% 30.05 in 10.0 mi East 6.9 mph - N/A   Clear
8:53 PM 46.9 °F - 39.9 °F 77% 30.05 in 10.0 mi ESE 4.6 mph - N/A   Clear
9:53 PM 46.9 °F - 39.9 °F 77% 30.06 in 10.0 mi SSE 3.5 mph - N/A   Clear
10:53 PM 46.9 °F - 39.9 °F 77% 30.06 in 10.0 mi ESE 4.6 mph - N/A   Clear
11:53 PM 45.0 °F - 39.9 °F 82% 30.06 in 10.0 mi Calm Calm - N/A   Clear